Regional Weather Roundup
Issued by NWS

Home | Current Version | Previous Version | Graphics & Text | Print | Product List | Glossary On
Versions: 1 2 3 4 5 6 7 8 9 10 11 12 13 14 15 16 17 18 19 20 21 22 23 24 25 26 27 28 29 30 31 32 33 34 35 36 37 38 39 40 41 42 43 44 45 46 47 48 49 50
000
ASUS45 KCYS 241310
RWRWY

WYOMING REGIONAL WEATHER ROUNDUP
NATIONAL WEATHER SERVICE CHEYENNE WY
700 AM MDT SAT SEP 24 2016

NOTE:  "FAIR" INDICATES FEW OR NO CLOUDS BELOW 12,000 FEET
WITH NO SIGNIFICANT WEATHER AND/OR OBSTRUCTIONS TO VISIBILITY.

WYZ001-241400-
YELLOWSTONE NATIONAL PARK

CITY           SKY/WX    TMP DP  RH WIND       PRES   REMARKS
LK YELLOWSTONE   N/A     36  35  96 MISG      30.07S
W YELLOWSTONE  NOT AVBL

$$
WYZ002>013-054>058-071-098>099-241400-
NORTHERN WYOMING

CITY           SKY/WX    TMP DP  RH WIND       PRES   REMARKS
JACKSON        CLOUDY    37  37 100 CALM      30.05R
CODY           CLOUDY    45  43  93 N8        29.98R
GREYBULL       LGT RAIN  49  46  90 NW20      29.92R
WORLAND        RAIN      48  46  93 W8        29.92R
SHERIDAN       RAIN      49  46  90 NW20G26   29.89S
BUFFALO        LGT RAIN  46  43  89 NW10      29.90R
GILLETTE       LGT RAIN  47  46  97 W10       29.85R
HULETT         LGT RAIN  48  46  93 W6        29.81S
NEWCASTLE      LGT RAIN  45  43  93 N14       29.86F

$$
WYZ014>020-022>026-101>103-241400-
CENTRAL WYOMING

CITY           SKY/WX    TMP DP  RH WIND       PRES   REMARKS
BIG PINEY      LGT RAIN  38  35  89 CALM      30.03R
PINEDALE       LGT RAIN  36  36 100 NW10      30.03S WCI  28
DUBOIS         RAIN      39  34  81 W22G32    29.98R WCI  29
LANDER         LGT RAIN  43  42  97 N6        29.95R
RIVERTON       RAIN      43  42  97 N6        29.96R
CASPER         LGT RAIN  44  40  85 SW10      29.93S
DOUGLAS        MOCLDY    41  40  96 W5        29.91F

$$
WYZ021-027>030-104>119-241400-
SOUTHERN WYOMING

CITY           SKY/WX    TMP DP  RH WIND       PRES   REMARKS
EVANSTON       LGT RAIN  33  31  92 SW14      30.11R VSB 3/4 WCI  23
FORT BRIDGER   LGT SNOW  34  34 100 W17       30.11R VSB 1   WCI  23
ROCK SPRINGS   LGT RAIN  36  35  96 W15       30.05R WCI  27
DIXON          DRIZZLE   40  37  91 SW8       30.09R WCI  34
RAWLINS        CLOUDY    38  34  85 SW13      30.02R WCI  30
SARATOGA       DRIZZLE   37  36  93 CALM      30.04S
LARAMIE        FAIR      35  30  82 SW13      30.00F WCI  26
CHEYENNE       FAIR      39  33  79 W12       29.97F WCI  32
TORRINGTON     FAIR      42  39  89 SW6       29.93R
PINE BLUFFS    FAIR      36  36 100 MISG      29.97S

$$



USA.gov is the U.S. government's official web portal to all federal, state and local government web resources and services.